Weather History for KMKE - October, 2011

Change the Weather History Date:

Tuesday, October 4, 2011

  Actual Average Record
Temperature  
Mean Temperature 58 °F 56 °F  
Max Temperature 70 °F 64 °F 88 °F (1897)
Min Temperature 46 °F 47 °F 31 °F (1935)
Degree Days  
Heating Degree Days 7 10  
Month to date heating degree days 45 38  
Since 1 July heating degree days 201 190  
Cooling Degree Days 0 0  
Month to date cooling degree days 0 3  
Year to date cooling degree days 786 637  
Growing Degree Days 7 (Base 50)    
Moisture  
Dew Point 47 °F    
Average Humidity 64    
Maximum Humidity 86    
Minimum Humidity 42    
Precipitation  
Precipitation 0.00 in 0.09 in 2.30 in (1991)
Month to date precipitation 0.00 0.36  
Year to date precipitation 26.20 27.72  
Snow  
Snow 0.00 in 0.00 in 0.00 in ()
Month to date snowfall 0.0 0.0  
Since 1 July snowfall 0.0 0.0  
Since 1 September snowfall 0.0 0.0  
Snow Depth 0.00 in    
Sea Level Pressure  
Sea Level Pressure 30.26 in    
Wind  
Wind Speed 4 mph (South)    
Max Wind Speed 12 mph    
Max Gust Speed 13 mph    
Visibility 10 miles    
Events      
T = Trace of Precipitation, MM = Missing Value Source: NWS Daily Summary

Daily Weather History Graph

Daily Weather History Graph

Search for Another Location

Airport or City:

Trip Planner

Search our weather history database for the weather conditions in past years. The results will help you decide how hot, cold, wet, or windy it might be!

Date:

Astronomy

Oct. 04, 2011 Rise Set
Actual Time 6:52 AM CDT 6:28 PM CDT
Civil Twilight 6:23 AM CDT 6:56 PM CDT
Nautical Twilight 5:50 AM CDT 7:29 PM CDT
Astronomical Twilight 5:17 AM CDT 8:02 PM CDT
Moon 2:39 PM CDT (10/4) No Moon Set
Length of Visible Light 12h 32m
Length of Day
11h 36m
First Quarter, 56% of the Moon is Illuminated
Oct 4
First Quarter
Oct 11
Full
Oct 19
Last Quarter
Oct 26
New
Nov 2
First Quarter

Hourly Weather History & Observations

Time (CDT) Temp. Dew Point Humidity Pressure Visibility Wind Dir Wind Speed Gust Speed Precip Events Conditions
12:52 AM 48.0 °F 44.1 °F 86% 30.25 in 10.0 mi WNW 4.6 mph - N/A   Clear
1:52 AM 48.0 °F 43.0 °F 83% 30.25 in 10.0 mi Calm Calm - N/A   Clear
2:52 AM 48.0 °F 43.0 °F 83% 30.25 in 10.0 mi Calm Calm - N/A   Clear
3:52 AM 46.9 °F 42.1 °F 83% 30.26 in 10.0 mi WNW 3.5 mph - N/A   Clear
4:52 AM 48.0 °F 42.1 °F 80% 30.27 in 10.0 mi WNW 3.5 mph - N/A   Clear
5:52 AM 48.2 °F 42.8 °F 82% 30.27 in 10.0 mi Calm Calm - N/A   Clear
6:52 AM 46.9 °F 42.1 °F 83% 30.30 in 10.0 mi Calm Calm - N/A   Scattered Clouds
7:52 AM 52.0 °F 44.1 °F 74% 30.30 in 10.0 mi NW 3.5 mph - N/A   Scattered Clouds
8:52 AM 57.2 °F 44.6 °F 63% 30.30 in 10.0 mi NW 3.5 mph - N/A   Scattered Clouds
9:52 AM 62.1 °F 41.0 °F 46% 30.30 in 10.0 mi Variable 3.5 mph - N/A   Scattered Clouds
10:52 AM 64.9 °F 41.0 °F 42% 30.30 in 10.0 mi NNW 3.5 mph - N/A   Scattered Clouds
11:52 AM 68.0 °F 44.1 °F 42% 30.30 in 10.0 mi Calm Calm - N/A   Scattered Clouds
12:52 PM 68.0 °F 48.9 °F 50% 30.27 in 10.0 mi ESE 6.9 mph - N/A   Scattered Clouds
1:52 PM 64.9 °F 50.0 °F 58% 30.26 in 10.0 mi ESE 8.1 mph - N/A   Scattered Clouds
2:52 PM 64.9 °F 51.1 °F 61% 30.25 in 10.0 mi SE 8.1 mph - N/A   Scattered Clouds
3:52 PM 64.0 °F 53.1 °F 67% 30.24 in 10.0 mi ESE 8.1 mph - N/A   Partly Cloudy
4:52 PM 62.6 °F 50.0 °F 63% 30.22 in 10.0 mi SE 9.2 mph - N/A   Partly Cloudy
5:52 PM 62.1 °F 52.0 °F 70% 30.22 in 10.0 mi SE 6.9 mph - N/A   Partly Cloudy
6:52 PM 57.2 °F 51.8 °F 82% 30.21 in 10.0 mi SE 3.5 mph - N/A   Partly Cloudy
7:52 PM 57.0 °F 51.1 °F 81% 30.23 in 10.0 mi South 5.8 mph - N/A   Clear
8:52 PM 57.0 °F 50.0 °F 77% 30.23 in 10.0 mi South 3.5 mph - N/A   Clear
9:52 PM 55.0 °F 48.9 °F 80% 30.23 in 10.0 mi SSW 3.5 mph - N/A   Clear
10:52 PM 55.9 °F 48.9 °F 77% 30.23 in 10.0 mi SSW 4.6 mph - N/A   Clear
11:52 PM 53.1 °F 46.9 °F 80% 30.23 in 10.0 mi South 3.5 mph - N/A   Clear